Location: Garden of he Gods Recreation Area
(37.6010°N, 88.3780°W)
Time: 04:13:53
(UTC-05:00)

OTV 5 (USA 277) - Visible Passes

Search period start: 19 October 2019 00:00
Search period end: 29 October 2019 00:00
Orbit: 310 x 324 km, 54.5° (Epoch: 17 October)

Date Brightness Start Highest point End Pass type
(mag) Time Alt. Az. Time Alt. Az. Time Alt. Az.
19 Oct ? 05:54:04 15° NNW 05:55:55 33° NE 05:58:26 10° ESE visible
20 Oct ? 06:08:43 19° NW 06:10:30 73° SW 06:13:12 10° SE visible
21 Oct ? 04:52:34 12° E 04:52:34 12° E 04:52:51 10° E visible
21 Oct ? 06:23:30 15° W 06:24:55 21° SW 06:27:04 10° S visible
22 Oct ? 05:07:29 14° ESE 05:07:29 14° ESE 05:08:01 10° SE visible
26 Oct ? 19:11:13 10° S 19:12:58 21° SE 19:12:58 21° SE visible
27 Oct ? 19:25:09 10° SW 19:27:43 74° S 19:27:43 74° S visible
28 Oct ? 19:39:58 10° WSW 19:42:19 30° NW 19:42:19 30° NW visible
